Air Resources Laboratory banner image
Air Resources Laboratory web site National Oceanic and Atmospheric Administration (NOAA)

ia roundup


Office: DMX

ASUS43 KDMX 171101
RWRIA

WEATHER ROUNDUP FOR IOWA
NATIONAL WEATHER SERVICE DES MOINES IA
600 AM CDT WED AUG 17 2022

NOTE: "FAIR" INDICATES FEW OR NO CLOUDS BELOW 12,000 FEET WITH NO
SIGNIFICANT WEATHER AND/OR OBSTRUCTIONS TO VISIBILITY.

* - THESE STATIONS ARE NOT NWS STATIONS...THUS NOT UNDER NWS
QUALITY CONTROL.  THEY ALSO DO NOT REPORT WEATHER SUCH
AS PRECIPITATION OR FOG.

IAZ001>003-012>014-020>022-031>034-043>046-171200-
   NORTHWEST IOWA

CITY           SKY/WX    TMP DP  RH WIND       PRES   REMARKS
CARROLL *      MOCLDY    55  55 100 NW3       30.16S FOG
CHEROKEE *     CLEAR     57  57 100 CALM      30.18R FOG
DENISON *      CLEAR     57  57 100 CALM      30.18S
LE MARS *      CLEAR     57  57 100 CALM      30.16S FOG
MAURICE *      MOCLDY    61  61 100 SE5       30.16R
SHELDON *      CLEAR     55  55 100 SE5       30.16S
SIOUX CITY     FOG       58  58 100 CALM      30.17R VSB 1/2
SPENCER        PTCLDY    56  53  90 CALM      30.18R FOG
STORM LAKE *     N/A    N/A N/A N/A MISG        N/A
$$

IAZ055>058-069>071-079>083-090>094-171200-
   SOUTHWEST IOWA

CITY           SKY/WX    TMP DP  RH WIND       PRES   REMARKS
ATLANTIC *     PTCLDY    57  57 100 N3        30.15R
AUDUBON *      PTCLDY    55  54  94 CALM      30.18R
CLARINDA *     CLEAR     57  57 100 CALM      30.16R
COUNCIL BLFS * LGT RAIN  59  59 100 N3        30.14R
CRESTON *      CLEAR     61  59  94 NE8       30.15R
HARLAN  *      CLEAR     59  59 100 CALM      30.16S
LAMONI         CLEAR     59  57  93 N6        30.13R
RED OAK *      CLEAR     59  59 100 CALM      30.15R
SHENANDOAH *   FOG       57  57 100 NE3       30.13R VSB 1/4
$$

IAZ047>049-059>061-072>074-084-171200-
   CENTRAL IOWA

CITY           SKY/WX    TMP DP  RH WIND       PRES   REMARKS
AMES           CLEAR     57  56  96 CALM      30.15S
ANKENY *       CLEAR     57  55  94 CALM      30.16R
BOONE *        CLEAR     59  57  94 CALM      30.18R
CHARITON *     CLEAR     59  59 100 N3        30.13S
DES MOINES     CLEAR     64  58  80 CALM      30.15R
GRINNELL*      CLEAR     61  58  91 E3        30.17R
KNOXVILLE *    CLEAR     63  57  82 NE6       30.14R
MARSHALLTOWN   CLEAR     54  53  97 CALM      30.16R
PELLA *        CLEAR     58  57  96 N3        30.15R
PERRY *        FAIR      59  57  94 CALM      30.16R
$$

IAZ004>006-015-016-023>025-035-036-171200-
   NORTH CENTRAL IOWA

CITY           SKY/WX    TMP DP  RH WIND       PRES   REMARKS
ALGONA *       CLEAR     57  57 100 CALM      30.17R
CLARION *      MOCLDY    54  54 100 CALM      30.17R
ESTHERVILLE    CLEAR     57  55  93 SW3       30.17S FOG
FORT DODGE *   CLEAR     54  53  97 CALM      30.18R FOG
MASON CITY     CLEAR     53  52  96 CALM      30.19R
FOREST CITY *  FAIR      52  52 100 CALM      30.18R
WEBSTER CITY * CLEAR     54  54 100 N3        30.15R FOG
IOWA FALLS *   FAIR      56  55  96 CALM      30.18R
$$

IAZ007>011-017>019-026>030-037>042-050>054-066-171200-
   NORTHEAST IOWA

CITY           SKY/WX    TMP DP  RH WIND       PRES   REMARKS
CEDAR RAPIDS     N/A     60  57  89 N3        30.15R
CHARLES CITY * CLEAR     59  59 100 E5        30.17R
CLINTON *      CLEAR     56  32  40 N8        30.15R
DECORAH *      MOCLDY    57  57 100 CALM      30.17R
DUBUQUE        CLEAR     57  55  93 CALM      30.17R
OELWEIN *      CLEAR     55  55 100 NE6       30.18R
WATERLOO       CLEAR     58  55  90 CALM      30.15R
$$

IAZ064-065-067-068-078-171200-
   EAST CENTRAL IOWA

CITY           SKY/WX    TMP DP  RH WIND       PRES   REMARKS
DAVENPORT      CLEAR     56  53  90 N3        30.15R
IOWA CITY      CLEAR     61  54  77 N3        30.15R
MUSCATINE *    CLEAR     55  55 100 CALM      30.14R
QUAD CITIES    CLEAR     56  54  93 W3        30.13R
$$

IAZ062-063-075>077-085>089-095>099-171200-
   SOUTHEAST IOWA

CITY           SKY/WX    TMP DP  RH WIND       PRES   REMARKS
BURLINGTON     CLEAR     65  50  58 E7        30.12R
FAIRFIELD *    CLEAR     59  57  94 NE3       30.13R
FORT MADISON * CLOUDY    57  57 100 CALM      30.12R
KEOKUK *       MOCLDY    63  57  82 E5        30.12R
OTTUMWA        CLEAR     60  58  92 NE6       30.13R
WASHINGTON *   CLEAR     57  57 100 NE6       30.13R
$$

ABBREVIATIONS USED IN REMARKS
   TC - TEMPERATURES IN CELSIUS
  WCI - WIND CHILL INDEX
   HX - HEAT INDEX
  VSB - VISIBILITY
$$



ASUS43 KDMX 171106
RWRIA

WEATHER ROUNDUP FOR IOWA
NATIONAL WEATHER SERVICE DES MOINES IA
600 AM CDT WED AUG 17 2022

NOTE: "FAIR" INDICATES FEW OR NO CLOUDS BELOW 12,000 FEET WITH NO
SIGNIFICANT WEATHER AND/OR OBSTRUCTIONS TO VISIBILITY.

* - THESE STATIONS ARE NOT NWS STATIONS...THUS NOT UNDER NWS
QUALITY CONTROL.  THEY ALSO DO NOT REPORT WEATHER SUCH
AS PRECIPITATION OR FOG.

IAZ001>003-012>014-020>022-031>034-043>046-171200-
   NORTHWEST IOWA

CITY           SKY/WX    TMP DP  RH WIND       PRES   REMARKS
CARROLL *      MOCLDY    55  55 100 NW3       30.16S FOG
CHEROKEE *     CLEAR     57  57 100 CALM      30.18R FOG
DENISON *      CLEAR     57  57 100 CALM      30.18S
LE MARS *      CLEAR     57  57 100 CALM      30.16S FOG
MAURICE *      MOCLDY    61  61 100 SE5       30.16
SHELDON *      CLEAR     55  55 100 SE5       30.16S
SIOUX CITY     FOG       58  58 100 CALM      30.17R VSB 1/2
SPENCER        FOG       55  52  89 CALM      30.18R VSB 3/4
STORM LAKE *     N/A    N/A N/A N/A MISG        N/A
$$

IAZ055>058-069>071-079>083-090>094-171200-
   SOUTHWEST IOWA

CITY           SKY/WX    TMP DP  RH WIND       PRES   REMARKS
ATLANTIC *     PTCLDY    57  57 100 N3        30.15R
AUDUBON *      PTCLDY    55  54  94 CALM      30.18R
CLARINDA *     CLEAR     57  57 100 CALM      30.16R
COUNCIL BLFS * LGT RAIN  59  59 100 N3        30.14
CRESTON *      CLEAR     61  59  94 NE8       30.15R
HARLAN  *      CLEAR     59  59 100 CALM      30.16S
LAMONI         CLEAR     59  57  93 N6        30.13R
RED OAK *      CLEAR     59  59 100 CALM      30.15R
SHENANDOAH *   FOG       57  57 100 NE3       30.13R VSB 1/4
$$

IAZ047>049-059>061-072>074-084-171200-
   CENTRAL IOWA

CITY           SKY/WX    TMP DP  RH WIND       PRES   REMARKS
AMES           CLEAR     57  56  96 CALM      30.15S
ANKENY *       CLEAR     57  55  94 CALM      30.16R
BOONE *        CLEAR     59  57  94 CALM      30.18R
CHARITON *     CLEAR     59  59 100 N3        30.13
DES MOINES     CLEAR     64  58  80 CALM      30.15R
GRINNELL*      CLEAR     61  58  91 E3        30.17R
KNOXVILLE *    CLEAR     63  57  82 NE6       30.14R
MARSHALLTOWN   CLEAR     54  53  97 CALM      30.16R
NEWTON *       CLEAR     61  59  94 NE7       30.15R
PELLA *        CLEAR     58  57  96 N3        30.15R
PERRY *        FAIR      59  57  94 CALM      30.16R
$$

IAZ004>006-015-016-023>025-035-036-171200-
   NORTH CENTRAL IOWA

CITY           SKY/WX    TMP DP  RH WIND       PRES   REMARKS
ALGONA *       CLEAR     57  57 100 CALM      30.17R
CLARION *      MOCLDY    54  54 100 CALM      30.17R
ESTHERVILLE    CLEAR     57  55  93 SW3       30.17S FOG
FORT DODGE *   CLEAR     54  53  97 CALM      30.18R FOG
MASON CITY     CLEAR     53  52  96 CALM      30.19R
FOREST CITY *  FAIR      52  52 100 CALM      30.18R
WEBSTER CITY * CLEAR     54  54 100 N3        30.15R FOG
IOWA FALLS *   FAIR      56  55  96 CALM      30.18R
$$

IAZ007>011-017>019-026>030-037>042-050>054-066-171200-
   NORTHEAST IOWA

CITY           SKY/WX    TMP DP  RH WIND       PRES   REMARKS
CEDAR RAPIDS     N/A     60  57  89 N3        30.15R
CHARLES CITY * CLEAR     59  59 100 E5        30.17R
CLINTON *      CLEAR     56  32  40 N8        30.15R
DECORAH *      MOCLDY    57  57 100 CALM      30.17R
DUBUQUE        CLEAR     57  55  93 CALM      30.17R
OELWEIN *      CLEAR     55  55 100 NE6       30.18R
WATERLOO       CLEAR     58  55  90 CALM      30.15R
$$

IAZ064-065-067-068-078-171200-
   EAST CENTRAL IOWA

CITY           SKY/WX    TMP DP  RH WIND       PRES   REMARKS
DAVENPORT      CLEAR     56  53  90 N3        30.15R
IOWA CITY      CLEAR     61  54  77 N3        30.15R
MT. PLEASANT * CLEAR     57  57 100 NE5       30.13S
MUSCATINE *    CLEAR     55  55 100 CALM      30.14R
QUAD CITIES    CLEAR     56  54  93 W3        30.13R
$$

IAZ062-063-075>077-085>089-095>099-171200-
   SOUTHEAST IOWA

CITY           SKY/WX    TMP DP  RH WIND       PRES   REMARKS
BURLINGTON     CLEAR     65  50  58 E7        30.12R
FAIRFIELD *    CLEAR     59  57  94 NE3       30.13R
FORT MADISON * CLOUDY    57  57 100 CALM      30.12R
KEOKUK *       MOCLDY    63  57  82 E5        30.12R
OTTUMWA        CLEAR     60  58  92 NE6       30.13R
WASHINGTON *   CLEAR     57  57 100 NE6       30.13R
$$

ABBREVIATIONS USED IN REMARKS
   TC - TEMPERATURES IN CELSIUS
  WCI - WIND CHILL INDEX
   HX - HEAT INDEX
  VSB - VISIBILITY
$$





Office: FSD ASUS43 KFSD 171102 RWRFSD WEATHER ROUNDUP FOR SE SOUTH DAKOTA/SW MINNESOTA/NW IOWA NATIONAL WEATHER SERVICE SIOUX FALLS SD 600 AM CDT WED AUG 17 2022 NOTE: "FAIR" INDICATES FEW OR NO CLOUDS BELOW 12,000 FEET WITH NO SIGNIFICANT WEATHER AND OR OBSTRUCTIONS TO VISIBILITY. SDZ038>040-050-052>070-171200- SOUTHEAST SOUTH DAKOTA CITY SKY/WX TMP DP RH WIND PRES REMARKS BROOKINGS CLEAR 58 58 100 CALM 30.18R CHAMBERLAIN FOG 56 56 100 CALM 30.17R VSB 3/4 HURON CLEAR 60 57 89 S6 30.15R MADISON N/A 59 59 100 CALM 30.18R MITCHELL CLEAR 60 58 92 SE3 30.17R SIOUX FALLS PTCLDY 61 59 93 CALM 30.18R WINNER CLEAR 58 56 93 CALM 30.17R YANKTON CLEAR 62 61 96 CALM 30.18R $$ MNZ071-072-080-081-089-090-097-098-171200- SOUTHWEST MINNESOTA CITY SKY/WX TMP DP RH WIND PRES REMARKS FAIRMONT CLEAR 56 55 97 CALM 30.18R JACKSON CLEAR 57 55 94 CALM 30.19R LUVERNE CLEAR 55 54 94 CALM 30.19R MARSHALL PTCLDY 60 59 96 SW6 30.17R MONTEVIDEO PTCLDY 61 61 100 CALM 30.16R REDWOOD FALLS CLEAR 62 59 90 SW3 30.16R TRACY PTCLDY 64 58 81 SW7 30.18R WINDOM CLEAR 55 55 100 CALM 30.18R WORTHINGTON CLEAR 59 58 96 CALM 30.20R $$ IAZ001>003-012>014-020>022-031-032-NEZ013-014-SDZ071-171200- NORTHWEST IOWA CITY SKY/WX TMP DP RH WIND PRES REMARKS CHEROKEE CLEAR 57 57 100 CALM 30.18R FOG DENISON CLEAR 57 57 100 CALM 30.18S ESTHERVILLE CLEAR 57 55 93 SW3 30.17S FOG LE MARS CLEAR 57 57 100 CALM 30.16S FOG MAURICE MOCLDY 61 61 100 SE5 30.16R SHELDON CLEAR 55 55 100 SE5 30.16S SIOUX CITY FOG 58 58 100 CALM 30.17R VSB 1/2 SPENCER PTCLDY 56 53 90 CALM 30.18R FOG STORM LAKE N/A N/A N/A N/A MISG N/A $$ ABBREVIATIONS USED IN REMARKS TC - TEMPERATURE IN CELSIUS WCI - WIND CHILL INDEX HX - HEAT INDEX VSB - VISIBILITY ASUS43 KFSD 171102 RWRSD WEATHER ROUNDUP FOR SOUTH DAKOTA NATIONAL WEATHER SERVICE SIOUX FALLS SD 600 AM CDT WED AUG 17 2022 NOTE: "FAIR" INDICATES FEW OR NO CLOUDS BELOW 12,000 FEET WITH NO SIGNIFICANT WEATHER AND/OR OBSTRUCTIONS TO VISIBILITY. SDZ001>005-009-010-012>017-171200- NORTHWEST AND NORTH CENTRAL SOUTH DAKOTA CITY SKY/WX TMP DP RH WIND PRES REMARKS BUFFALO N/A 63 54 72 S6 30.09S FAITH N/A 59 58 96 S17 30.11S MOBRIDGE CLEAR 65 59 81 S7 30.08S $$ SDZ012>016-024>037-041>051-057-063-072>074-171200- SOUTHWEST AND SOUTH CENTRAL SOUTH DAKOTA CITY SKY/WX TMP DP RH WIND PRES REMARKS RAPID CTY ARPT CLEAR 57 56 96 SE6 30.15R PIERRE CLEAR 59 58 96 S7 30.12S CUSTER CLEAR 53 48 83 NW5 30.29R ELLSWORTH AFB CLEAR 61 56 83 S6 30.12R PHILIP CLEAR 61 59 93 S5 30.13S PINE RIDGE CLEAR 59 58 96 S7 30.18S SPEARFISH FAIR 63 48 59 CALM 30.18S WINNER CLEAR 58 56 93 CALM 30.17R $$ SDZ004>011-016>023-039-040-171200- NORTHEAST SOUTH DAKOTA CITY SKY/WX TMP DP RH WIND PRES REMARKS ABERDEEN PTCLDY 57 56 96 SE5 30.13R WATERTOWN MOCLDY 62 61 96 S7 30.15S BROOKINGS CLEAR 58 58 100 CALM 30.18R SISSETON N/A 71 59 65 CALM 30.11R $$ SDZ017-020-022-023-036>040-048>070-171200- SOUTHEAST SOUTH DAKOTA CITY SKY/WX TMP DP RH WIND PRES REMARKS SIOUX FALLS PTCLDY 61 59 93 CALM 30.18R HURON CLEAR 60 57 89 S6 30.15R CHAMBERLAIN FOG 56 56 100 CALM 30.17R VSB 3/4 MADISON N/A 59 59 100 CALM 30.18R MITCHELL CLEAR 60 58 92 SE3 30.17R YANKTON CLEAR 62 61 96 CALM 30.18R $$ ABBREVIATIONS USED IN REMARKS TC - TEMPERATURE IN CELSIUS WCI - WIND CHILL INDEX HX - HEAT INDEX VSB - VISIBILITY ASUS43 KFSD 171110 RWRFSD WEATHER ROUNDUP FOR SE SOUTH DAKOTA/SW MINNESOTA/NW IOWA NATIONAL WEATHER SERVICE SIOUX FALLS SD 600 AM CDT WED AUG 17 2022 NOTE: "FAIR" INDICATES FEW OR NO CLOUDS BELOW 12,000 FEET WITH NO SIGNIFICANT WEATHER AND OR OBSTRUCTIONS TO VISIBILITY. SDZ038>040-050-052>070-171200- SOUTHEAST SOUTH DAKOTA CITY SKY/WX TMP DP RH WIND PRES REMARKS BROOKINGS PTCLDY 58 58 100 CALM 30.18R CHAMBERLAIN FOG 56 56 100 CALM 30.17R VSB 3/4 HURON CLEAR 60 57 89 S6 30.15R MADISON N/A 59 59 100 CALM 30.18R MITCHELL CLEAR 60 58 92 SE3 30.17R SIOUX FALLS PTCLDY 61 59 93 CALM 30.18R WINNER CLEAR 58 56 93 CALM 30.17R YANKTON CLEAR 62 61 96 CALM 30.18R $$ MNZ071-072-080-081-089-090-097-098-171200- SOUTHWEST MINNESOTA CITY SKY/WX TMP DP RH WIND PRES REMARKS FAIRMONT CLEAR 56 55 97 CALM 30.18R JACKSON CLEAR 57 55 94 CALM 30.19R LUVERNE CLEAR 55 54 94 CALM 30.19R MARSHALL PTCLDY 60 59 96 SW6 30.17R MONTEVIDEO CLEAR 61 61 100 CALM 30.16R REDWOOD FALLS CLEAR 62 59 90 SW3 30.16R TRACY CLEAR 64 58 81 SW7 30.18R WINDOM CLEAR 55 55 100 CALM 30.18R WORTHINGTON CLEAR 59 58 96 CALM 30.20R $$ IAZ001>003-012>014-020>022-031-032-NEZ013-014-SDZ071-171200- NORTHWEST IOWA CITY SKY/WX TMP DP RH WIND PRES REMARKS CHEROKEE CLEAR 57 57 100 CALM 30.18R FOG DENISON CLEAR 57 57 100 CALM 30.18S ESTHERVILLE CLEAR 57 55 93 SW3 30.17S FOG LE MARS CLEAR 57 57 100 CALM 30.16S FOG MAURICE MOCLDY 61 61 100 SE5 30.16R SHELDON CLEAR 55 55 100 SE5 30.16S SIOUX CITY FOG 58 58 100 CALM 30.17R VSB 1/2 SPENCER FOG 55 52 89 CALM 30.18R VSB 3/4 STORM LAKE N/A N/A N/A N/A MISG N/A $$ ABBREVIATIONS USED IN REMARKS TC - TEMPERATURE IN CELSIUS WCI - WIND CHILL INDEX HX - HEAT INDEX VSB - VISIBILITY ASUS43 KFSD 171110 RWRSD WEATHER ROUNDUP FOR SOUTH DAKOTA NATIONAL WEATHER SERVICE SIOUX FALLS SD 600 AM CDT WED AUG 17 2022 NOTE: "FAIR" INDICATES FEW OR NO CLOUDS BELOW 12,000 FEET WITH NO SIGNIFICANT WEATHER AND/OR OBSTRUCTIONS TO VISIBILITY. SDZ001>005-009-010-012>017-171200- NORTHWEST AND NORTH CENTRAL SOUTH DAKOTA CITY SKY/WX TMP DP RH WIND PRES REMARKS BUFFALO N/A 63 54 72 S6 30.09S FAITH N/A 59 58 96 S17 30.11S MOBRIDGE CLEAR 65 59 81 S7 30.08S $$ SDZ012>016-024>037-041>051-057-063-072>074-171200- SOUTHWEST AND SOUTH CENTRAL SOUTH DAKOTA CITY SKY/WX TMP DP RH WIND PRES REMARKS RAPID CTY ARPT CLEAR 57 56 96 SE6 30.15R PIERRE CLEAR 59 58 96 S7 30.12S CUSTER CLEAR 53 48 83 NW5 30.29R ELLSWORTH AFB CLEAR 61 56 83 S6 30.12R PHILIP CLEAR 61 59 93 S5 30.13S PINE RIDGE CLEAR 59 58 96 S7 30.18S SPEARFISH FAIR 63 48 59 CALM 30.18S WINNER CLEAR 58 56 93 CALM 30.17R $$ SDZ004>011-016>023-039-040-171200- NORTHEAST SOUTH DAKOTA CITY SKY/WX TMP DP RH WIND PRES REMARKS ABERDEEN PTCLDY 57 56 96 SE5 30.13R WATERTOWN PTCLDY 62 61 96 S7 30.15S BROOKINGS PTCLDY 58 58 100 CALM 30.18R SISSETON N/A 71 59 65 CALM 30.11R $$ SDZ017-020-022-023-036>040-048>070-171200- SOUTHEAST SOUTH DAKOTA CITY SKY/WX TMP DP RH WIND PRES REMARKS SIOUX FALLS PTCLDY 61 59 93 CALM 30.18R HURON CLEAR 60 57 89 S6 30.15R CHAMBERLAIN FOG 56 56 100 CALM 30.17R VSB 3/4 MADISON N/A 59 59 100 CALM 30.18R MITCHELL CLEAR 60 58 92 SE3 30.17R YANKTON CLEAR 62 61 96 CALM 30.18R $$ ABBREVIATIONS USED IN REMARKS TC - TEMPERATURE IN CELSIUS WCI - WIND CHILL INDEX HX - HEAT INDEX VSB - VISIBILITY
Office: EAX ASUS43 KEAX 171105 RWREAX WEATHER ROUNDUP FOR EASTERN KANSAS AND NORTHWEST MISSOURI NATIONAL WEATHER SERVICE KANSAS CITY/PLEASANT HILL MO 600 AM CDT WED AUG 17 2022 KSZ040-057-103>105-MOZ028-029-037-043-171200- ...KANSAS CITY METROPOLITAN AREA... CITY SKY/WX TMP DP RH WIND PRES REMARKS K.C. INTL CLEAR 63 62 97 NE7 30.10R K.C. DOWNTOWN CLEAR 65 63 93 N3 30.09R LEES SUMMIT FOG 63 63 100 CALM 30.10S VSB 1/4 OLATHE - IXD PTCLDY 64 62 93 N5 30.10R FOG OLATHE - OJC NOT AVBL LAWRENCE PTCLDY 63 62 97 CALM 30.09S FOG $$ MOZ001>008-011>017-020>025-030>033-038>040-044>046-053-054-171200- ...NORTHERN AND CENTRAL MISSOURI... CITY SKY/WX TMP DP RH WIND PRES REMARKS ST. JOSEPH CLEAR 59 59 100 CALM 30.11R HARRISONVILLE CLOUDY 64 64 100 NE3 30.11R WHITEMAN AFB PTCLDY 63 63 100 N6 30.04R CLINTON CLOUDY 66 66 100 NE5 30.07R SEDALIA FOG 63 61 93 N5 30.09R VSB 1/4 MARSHALL CLEAR 63 63 100 NE3 30.10R CHILLICOTHE N/A 63 61 93 CALM 30.11R MOBERLY CLEAR 61 59 94 NE3 30.10S FOG KIRKSVILLE CLEAR 59 58 96 NE6 30.12R $$ MOZ041-047>049-056>058-063>065-088>090-097-171200- ...EASTERN AND SOUTHERN MISSOURI... CITY SKY/WX TMP DP RH WIND PRES REMARKS ST. LOUIS INTL PTCLDY 66 60 81 E3 30.08R SPIRIT OF STL FOG 60 60 100 CALM 30.06R VSB 1/2 COLUMBIA CLEAR 65 62 90 NE7 30.08R JEFFERSON CITY CLEAR 63 60 90 CALM 30.07R FOG MEXICO CLEAR 61 61 100 NE3 30.09R HANNIBAL CLEAR N/A N/A N/A NE5 30.10S ROLLA CLEAR 64 64 100 NE6 30.07R LEBANON CLOUDY 64 63 94 NE5 30.06F OSAGE BEACH CLOUDY N/A N/A N/A NE5 N/A HAZE SPRINGFIELD LGT RAIN 67 66 97 E8 30.02S FOG BRANSON CLOUDY 66 66 100 E6 30.03R JOPLIN CLOUDY 68 67 96 NE7 30.02R FOG WEST PLAINS CLOUDY 66 65 96 E5 30.05R SIKESTON MOCLDY 64 64 100 CALM 30.02R FOG $$ IAZ060-094-KSZ022-034>040-054-083-096-NEZ052-066-093-171200- ...KANSAS...SOUTHEAST NEBRASKA AND IOWA... CITY SKY/WX TMP DP RH WIND PRES REMARKS TOPEKA CLEAR 65 63 93 N3 30.10R MANHATTAN CLEAR 65 62 90 CALM 30.11R EMPORIA CLOUDY 68 64 87 NE7 30.08R OTTAWA CLOUDY 66 66 100 NE8 30.06S CHANUTE CLOUDY 71 65 81 NE10 30.05R SALINA CLOUDY 68 64 87 NE9 30.12R WICHITA LGT RAIN 68 65 90 N10 30.08R OMAHA CLEAR 61 60 97 N7 30.16R LINCOLN CLEAR 59 57 93 N6 30.16R FALLS CITY CLEAR 61 59 93 N3 30.12R LAMONI CLEAR 59 57 93 N6 30.13R DES MOINES CLEAR 64 58 80 CALM 30.15R $$ ASUS43 KEAX 171110 RWREAX WEATHER ROUNDUP FOR EASTERN KANSAS AND NORTHWEST MISSOURI NATIONAL WEATHER SERVICE KANSAS CITY/PLEASANT HILL MO 600 AM CDT WED AUG 17 2022 KSZ040-057-103>105-MOZ028-029-037-043-171200- ...KANSAS CITY METROPOLITAN AREA... CITY SKY/WX TMP DP RH WIND PRES REMARKS K.C. INTL CLEAR 63 62 97 NE7 30.10R K.C. DOWNTOWN CLEAR 65 63 93 N3 30.09R LEES SUMMIT FOG 63 63 100 CALM 30.10S VSB 1/4 OLATHE - IXD PTCLDY 64 62 93 N5 30.10R FOG OLATHE - OJC NOT AVBL LAWRENCE PTCLDY 63 62 97 CALM 30.09S FOG $$ MOZ001>008-011>017-020>025-030>033-038>040-044>046-053-054-171200- ...NORTHERN AND CENTRAL MISSOURI... CITY SKY/WX TMP DP RH WIND PRES REMARKS ST. JOSEPH CLEAR 59 59 100 CALM 30.11R HARRISONVILLE CLOUDY 64 64 100 NE3 30.11R WHITEMAN AFB PTCLDY 63 62 96 N5 30.04R FOG CLINTON CLOUDY 66 66 100 NE5 30.07R SEDALIA FOG 63 61 93 N5 30.09R VSB 1/4 MARSHALL CLEAR 63 63 100 NE3 30.10R CHILLICOTHE N/A 63 61 93 CALM 30.11R MOBERLY CLEAR 61 59 94 NE3 30.10S FOG KIRKSVILLE CLEAR 59 58 96 NE6 30.12R $$ MOZ041-047>049-056>058-063>065-088>090-097-171200- ...EASTERN AND SOUTHERN MISSOURI... CITY SKY/WX TMP DP RH WIND PRES REMARKS ST. LOUIS INTL PTCLDY 66 60 81 E3 30.08R SPIRIT OF STL FOG 60 60 100 CALM 30.06R VSB 1/2 COLUMBIA CLEAR 65 62 90 NE7 30.08R JEFFERSON CITY CLEAR 63 60 90 CALM 30.07R FOG MEXICO CLEAR 61 61 100 NE3 30.09R HANNIBAL CLEAR N/A N/A N/A NE5 30.10S ROLLA CLEAR 64 64 100 NE6 30.07R LEBANON CLOUDY 64 63 94 NE5 30.06F OSAGE BEACH CLOUDY N/A N/A N/A NE5 N/A HAZE SPRINGFIELD LGT RAIN 67 66 97 E8 30.02S FOG BRANSON CLOUDY 66 66 100 E6 30.03R JOPLIN CLOUDY 68 67 96 NE7 30.02R FOG WEST PLAINS CLOUDY 66 65 96 E5 30.05R SIKESTON MOCLDY 64 64 100 CALM 30.02R FOG $$ IAZ060-094-KSZ022-034>040-054-083-096-NEZ052-066-093-171200- ...KANSAS...SOUTHEAST NEBRASKA AND IOWA... CITY SKY/WX TMP DP RH WIND PRES REMARKS TOPEKA CLEAR 65 63 93 N3 30.10R MANHATTAN PTCLDY 65 62 90 CALM 30.11R EMPORIA CLOUDY 68 64 87 NE7 30.08R OTTAWA CLOUDY 66 66 100 NE8 30.06S CHANUTE CLOUDY 71 65 81 NE10 30.05R SALINA CLOUDY 68 64 87 NE9 30.12R WICHITA LGT RAIN 68 65 90 N10 30.08R OMAHA CLEAR 61 60 97 N7 30.16R LINCOLN CLEAR 59 57 93 N6 30.16R FALLS CITY CLEAR 61 59 93 N3 30.12R LAMONI CLEAR 59 57 93 N6 30.13R DES MOINES CLEAR 64 58 80 CALM 30.15R $$